Weather History for Nashville, TN

Change the Weather History Date:

Monday, March 10, 2014

  Actual Average Record
Temperature  
Mean Temperature 56 °F 48 °F  
Max Temperature 72 °F 59 °F 80 °F (2009)
Min Temperature 39 °F 38 °F 17 °F (1932)
Degree Days  
Heating Degree Days 9 17  
Month to date heating degree days 217 182  
Since 1 July heating degree days 3402 3120  
Cooling Degree Days 0 0  
Month to date cooling degree days 0 0  
Year to date cooling degree days 0 0  
Growing Degree Days 4 (Base 50)    
Moisture  
Dew Point 38 °F    
Average Humidity 58    
Maximum Humidity 86    
Minimum Humidity 29    
Precipitation  
Precipitation 0.00 in 0.12 in 2.11 in (1952)
Month to date precipitation 2.41 1.29  
Year to date precipitation 10.11 8.98  
Snow  
Snow 0.00 in 0.10 in 0.30 in (1924)
Month to date snowfall 0.1 0.4  
Since 1 July snowfall 1.5 5.8  
Snow Depth 0.00 in    
Sea Level Pressure  
Sea Level Pressure 30.00 in    
Wind  
Wind Speed 5 mph (SSW)    
Max Wind Speed 14 mph    
Max Gust Speed 21 mph    
Visibility 10 miles    
Events      
T = Trace of Precipitation, MM = Missing Value Source: NWS Daily Summary

Daily Weather History Graph

Daily Weather History Graph

Search for Another Location

Airport:

Trip Planner

Search our weather history database for the weather conditions in past years. The results will help you decide how hot, cold, wet, or windy it might be!

Date:

Astronomy

Mar. 10, 2014 Rise Set
Actual Time 7:04 AM CDT 6:49 PM CDT
Civil Twilight 6:39 AM CDT 7:15 PM CDT
Nautical Twilight 6:09 AM CDT 7:45 PM CDT
Astronomical Twilight 5:39 AM CDT 8:15 PM CDT
Moon 1:40 PM CDT (3/10) 3:08 AM CDT (3/10)
Length of Visible Light 12h 36m
Length of Day
11h 45m
Waxing Gibbous, 70% of the Moon is Illuminated
Mar 10
Waxing Gibbous
Mar 16
Full
Mar 23
Last Quarter
Mar 30
New
Apr 7
First Quarter

Hourly Weather History & Observations

Time (CDT) Temp. Windchill Dew Point Humidity Pressure Visibility Wind Dir Wind Speed Gust Speed Precip Events Conditions
12:53 AM 41.0 °F 39.0 °F 32.0 °F 70% 30.12 in 10.0 mi SSW 3.5 mph - N/A   Clear
1:53 AM 41.0 °F - 33.1 °F 73% 30.12 in 10.0 mi Calm Calm - N/A   Clear
2:53 AM 44.1 °F - 34.0 °F 68% 30.10 in 10.0 mi Calm Calm - N/A   Clear
3:33 AM 41.0 °F - 33.8 °F 76% 30.09 in 10.0 mi Calm Calm - N/A   Mostly Cloudy
3:53 AM 43.0 °F - 34.0 °F 71% 30.09 in 10.0 mi Calm Calm - N/A   Overcast
4:53 AM 39.9 °F 37.8 °F 35.1 °F 83% 30.09 in 10.0 mi SSE 3.5 mph - N/A   Mostly Cloudy
5:05 AM 42.8 °F 41.1 °F 35.6 °F 76% 30.09 in 10.0 mi South 3.5 mph - N/A   Scattered Clouds
5:33 AM 39.2 °F 35.9 °F 33.8 °F 81% 30.08 in 10.0 mi South 4.6 mph - N/A   Mostly Cloudy
5:53 AM 39.9 °F 37.8 °F 35.1 °F 83% 30.09 in 10.0 mi SSE 3.5 mph - N/A   Overcast
6:53 AM 39.9 °F 36.7 °F 35.1 °F 83% 30.09 in 10.0 mi South 4.6 mph - N/A   Scattered Clouds
7:53 AM 41.0 °F 39.0 °F 37.0 °F 86% 30.09 in 8.0 mi South 3.5 mph - N/A   Clear
8:53 AM 48.9 °F - 39.9 °F 71% 30.08 in 10.0 mi SSW 3.5 mph - N/A   Partly Cloudy
9:53 AM 53.1 °F - 41.0 °F 64% 30.07 in 10.0 mi WSW 6.9 mph - N/A   Partly Cloudy
10:53 AM 55.9 °F - 42.1 °F 60% 30.06 in 10.0 mi WSW 3.5 mph - N/A   Partly Cloudy
11:53 AM 60.1 °F - 43.0 °F 53% 30.04 in 10.0 mi SSW 9.2 mph - N/A   Clear
12:53 PM 63.0 °F - 42.1 °F 46% 30.00 in 10.0 mi WSW 9.2 mph - N/A   Clear
1:53 PM 66.9 °F - 42.1 °F 40% 29.97 in 10.0 mi SW 5.8 mph 19.6 mph N/A   Partly Cloudy
2:53 PM 69.1 °F - 39.0 °F 33% 29.93 in 10.0 mi Variable 4.6 mph 17.3 mph N/A   Clear
3:53 PM 71.1 °F - 39.9 °F 32% 29.91 in 10.0 mi South 12.7 mph - N/A   Clear
4:53 PM 72.0 °F - 37.9 °F 29% 29.88 in 10.0 mi SSW 6.9 mph - N/A   Clear
5:53 PM 70.0 °F - 37.0 °F 30% 29.88 in 10.0 mi SW 8.1 mph - N/A   Clear
6:53 PM 66.9 °F - 37.9 °F 34% 29.87 in 10.0 mi SW 6.9 mph - N/A   Clear
7:53 PM 64.0 °F - 39.0 °F 40% 29.88 in 10.0 mi SW 5.8 mph - N/A   Clear
8:53 PM 61.0 °F - 41.0 °F 48% 29.88 in 10.0 mi SSW 6.9 mph - N/A   Clear
9:53 PM 59.0 °F - 39.9 °F 49% 29.88 in 10.0 mi SSW 5.8 mph - N/A   Clear
10:53 PM 55.0 °F - 39.9 °F 57% 29.87 in 10.0 mi SSW 5.8 mph - N/A   Clear
11:53 PM 55.9 °F - 41.0 °F 57% 29.87 in 10.0 mi SW 5.8 mph - N/A   Clear